SL-16 DEB, 22379

Orbit data source: Space-Track

SL-16 DEB, 22379 is space debris in LEO originally from a launch on Fri, 25 Dec 1992 UTC launched from the Tyuratam Missile And Space Complex (TTMTR). Debris objects in space refer to the collection of defunct objects orbiting the Earth. Examples of debris include non-operational satellites, rocket bodies, and fragments generated from explosions, collisions, or faulty payload assembly.

Loading next visibility...
Identifier
22379, 1992-093BU
Orbit
LEO
Country
Flag of CISCIS
Related business
Manufacturer
Unknown
Mission
Spacecraft
Bus & Motor
Unknown
Mass
Unknown
Launch date (UTC)
1992-12-25 (33 years ago)
Launch vehicle
Unknown
Launch site
Tyuratam Missile And Space Complex (TTMTR)
Object type
Payload
Rocket body
Debris
Shape & HBR
Unknown shape, 0.2 m
Radar Cross Section
Small (<0.1 m²)

Expand to show TLE details & history
Last TLE update: 18 hours ago

TLE from 18 hours ago
0 SL-16 DEB
1 22379U 92093BU  25307.69848873  .00001830  00000-0  10160-2 0  9998
2 22379  70.7033  84.2312 0081875 108.6398 252.3633 14.10827522678400
Epoch: 2025-11-03T16:45Z
TLE epoch observation values (Epoch: 2025-11-03T16:45:49.426Z)
Latitude
0.00003°
Longitude
149.57914°
Altitude
877.306 km
Speed
7.405 km/s
True Right ascension
05h 36m 55s
True Declination
0° 00' 00"
Sunlit
Object was in full shadow at epoch
Visualization orbit readout
Latitude
Unknown
Longitude
Unknown
Altitude
Unknown
Speed
Unknown
Apparent Right ascension
Unknown
Apparent Declination
Unknown
Sunlit
N/A
Visualization observer readout
Local Sidereal Time
06:19:50
Azimuth
Unknown
Elevation
Unknown
Doppler factor
Unknown
Orbital elements
Apogee altitude
913.717 km
Perigee altitude
795.282 km
Semi-major axis
7,232.636 km
Eccentricity
0.00819
Inclination
70.7033°
RAAN
84.2312°
Arg. of periapsis
108.6398°
True anomaly
251.47198°
Mean anomaly
252.3633°
Eccentric anomaly
251.91736°
Mean motion
3.52857 °/min
Orbital period
102.02 mins
BSTAR
0.001016
Loading maneuver chart data...
Computing Atmospheric mass density...

Documentation

Showing up to 5 results
|